This is the latest recevied weather packets stored in our database for station/object K7ZQU-7. If no packets are shown the sender has not sent any weather packets the latest 10 day(s).
| Time | Temp. | Humidity | Pressure | Rain* | Wind** | Luminosity | Snow |
|---|---|---|---|---|---|---|---|
| 1777967284 | 8.33° C | 91% | 1012.4 hPa | 0 mm | 0.89 m/s, 263° | - | - |
| 1777966985 | 8.33° C | 91% | 1012.4 hPa | 0 mm | 0.89 m/s, 284° | - | - |
| 1777966686 | 8.33° C | 92% | 1012.4 hPa | 0 mm | 2.68 m/s, 294° | - | - |
| 1777966085 | 8.33° C | 92% | 1012.4 hPa | 0 mm | 1.34 m/s, 302° | - | - |
| 1777965786 | 8.33° C | 92% | 1012.4 hPa | 0 mm | 1.34 m/s, 266° | - | - |
| 1777965487 | 8.33° C | 91% | 1012.4 hPa | 0 mm | 0.45 m/s, 248° | - | - |
| 1777964889 | 8.33° C | 91% | 1012.4 hPa | 0 mm | 0.89 m/s, 315° | - | - |
| 1777964589 | 8.33° C | 91% | 1012.4 hPa | 0 mm | 1.79 m/s, 293° | - | - |
| 1777964289 | 8.33° C | 91% | 1012.4 hPa | 0 mm | 1.34 m/s, 315° | - | - |
| 1777963990 | 8.33° C | 92% | 1012.4 hPa | 0 mm | 2.24 m/s, 278° | - | - |
| 1777963392 | 8.33° C | 91% | 1012.4 hPa | 0 mm | 2.24 m/s, 295° | - | - |
| 1777963090 | 8.33° C | 91% | 1012.2 hPa | 0 mm | 0 m/s | - | - |
| 1777962791 | 8.33° C | 90% | 1012.4 hPa | 0 mm | 0.89 m/s, 312° | - | - |
| 1777962492 | 8.33° C | 89% | 1012.4 hPa | 0 mm | 1.34 m/s, 323° | - | - |
| 1777962193 | 8.33° C | 90% | 1012.4 hPa | 0 mm | 1.34 m/s, 326° | - | - |
| 1777961895 | 8.33° C | 90% | 1012.5 hPa | 0 mm | 1.34 m/s, 330° | - | - |
| 1777960995 | 8.33° C | 88% | 1012.4 hPa | 0 mm | 1.34 m/s, 245° | - | - |
| 1777960696 | 8.33° C | 86% | 1012.5 hPa | 0 mm | 0.89 m/s, 276° | - | - |
| 1777960397 | 8.89° C | 84% | 1012.6 hPa | 0 mm | 0.89 m/s, 291° | - | - |
| 1777959796 | 8.89° C | 84% | 1012.5 hPa | 0 mm | 1.34 m/s, 291° | - | - |
| 1777959198 | 9.44° C | 83% | 1012.6 hPa | 0 mm | 1.34 m/s, 305° | - | - |
| 1777958899 | 9.44° C | 82% | 1012.5 hPa | 0 mm | 1.79 m/s, 285° | - | - |
| 1777958598 | 9.44° C | 82% | 1012.6 hPa | 0 mm | 2.24 m/s, 298° | - | - |
| 1777958000 | 9.44° C | 83% | 1012.6 hPa | 0 mm | 1.79 m/s, 319° | - | - |
| 1777957701 | 9.44° C | 82% | 1012.6 hPa | 0 mm | 1.79 m/s, 301° | - | - |
* Rain latest hour (hover to see other rain measurements)
** Current wind speed in m/s (hover to see current wind gust speed)